Hourly Weather Elanec

Today, 21 September, Monday

Time Temperature Precipitation Wind Pressure Humidity
00:00 +12°C° 0 mm 3 mps 759 mmHg 42%
01:00 +12°C° 0 mm 3 mps 759 mmHg 46%
02:00 +11°C° 0 mm 3 mps 759 mmHg 49%
03:00 +11°C° 0 mm 3 mps 759 mmHg 51%
04:00 +10°C° 0 mm 3 mps 759 mmHg 53%
05:00 +10°C° 0 mm 2 mps 759 mmHg 55%
06:00 +12°C° 0 mm 2 mps 759 mmHg 51%
07:00 +14°C° 0 mm 2 mps 760 mmHg 47%
08:00 +16°C° 0 mm 2 mps 760 mmHg 42%
09:00 +17°C° 0 mm 2 mps 760 mmHg 37%
10:00 +19°C° 0 mm 2 mps 760 mmHg 33%
11:00 +21°C° 0 mm 2 mps 760 mmHg 28%
12:00 +23°C° 0 mm 2 mps 759 mmHg 26%
13:00 +24°C° 0 mm 2 mps 759 mmHg 24%
14:00 +25°C° 0 mm 2 mps 759 mmHg 22%
15:00 +24°C° 0 mm 2 mps 759 mmHg 23%
16:00 +24°C° 0 mm 1 mps 759 mmHg 24%
17:00 +23°C° 0 mm 1 mps 758 mmHg 25%
18:00 +21°C° 0 mm 1 mps 758 mmHg 27%
19:00 +19°C° 0 mm 1 mps 759 mmHg 30%
20:00 +17°C° 0 mm 2 mps 759 mmHg 32%
21:00 +16°C° 0 mm 2 mps 759 mmHg 33%
22:00 +15°C° 0 mm 2 mps 759 mmHg 34%
23:00 +15°C° 0 mm 2 mps 759 mmHg 35%

Tomorrow, 22 September, Tuesday

Time Temperature Precipitation Wind Pressure Humidity
00:00 +14°C° 0 mm 2 mps 759 mmHg 36%
01:00 +14°C° 0 mm 1 mps 759 mmHg 38%
02:00 +13°C° 0 mm 1 mps 759 mmHg 39%
03:00 +13°C° 0 mm 1 mps 759 mmHg 40%
04:00 +12°C° 0 mm 1 mps 759 mmHg 42%
05:00 +12°C° 0 mm 1 mps 759 mmHg 43%
06:00 +14°C° 0 mm 1 mps 759 mmHg 39%
07:00 +16°C° 0 mm 1 mps 760 mmHg 36%
08:00 +18°C° 0 mm 2 mps 760 mmHg 32%
09:00 +20°C° 0 mm 2 mps 760 mmHg 29%
10:00 +21°C° 0 mm 2 mps 759 mmHg 25%
11:00 +24°C° 0 mm 3 mps 759 mmHg 22%
12:00 +25°C° 0 mm 2 mps 759 mmHg 20%
13:00 +26°C° 0 mm 2 mps 759 mmHg 18%
14:00 +27°C° 0 mm 2 mps 758 mmHg 17%
15:00 +26°C° 0 mm 2 mps 758 mmHg 18%
16:00 +25°C° 0 mm 1 mps 758 mmHg 19%
17:00 +25°C° 0 mm 1 mps 757 mmHg 21%
18:00 +23°C° 0 mm 1 mps 757 mmHg 23%
19:00 +20°C° 0 mm 2 mps 757 mmHg 24%
20:00 +18°C° 0 mm 2 mps 757 mmHg 26%
21:00 +17°C° 0 mm 2 mps 757 mmHg 27%
22:00 +16°C° 0 mm 2 mps 757 mmHg 29%
23:00 +15°C° 0 mm 2 mps 757 mmHg 30%

Day after tomorrow, 23 September, Wednesday

Time Temperature Precipitation Wind Pressure Humidity
00:00 +15°C° 0 mm 2 mps 757 mmHg 32%
01:00 +14°C° 0 mm 1 mps 757 mmHg 34%
02:00 +14°C° 0 mm 1 mps 757 mmHg 36%
03:00 +13°C° 0 mm 2 mps 757 mmHg 37%
04:00 +13°C° 0 mm 2 mps 757 mmHg 37%
05:00 +12°C° 0 mm 3 mps 757 mmHg 37%
06:00 +13°C° 0 mm 3 mps 756 mmHg 35%
07:00 +16°C° 0 mm 3 mps 756 mmHg 33%
08:00 +18°C° 0 mm 3 mps 756 mmHg 32%
09:00 +21°C° 0 mm 4 mps 756 mmHg 27%
10:00 +23°C° 0 mm 4 mps 756 mmHg 23%
11:00 +27°C° 0 mm 4 mps 756 mmHg 19%
12:00 +28°C° 0 mm 4 mps 755 mmHg 18%
13:00 +29°C° 0 mm 4 mps 755 mmHg 17%
14:00 +29°C° 0 mm 4 mps 754 mmHg 16%
15:00 +28°C° 0 mm 4 mps 754 mmHg 18%
16:00 +27°C° 0 mm 3 mps 754 mmHg 19%
17:00 +26°C° 0 mm 3 mps 753 mmHg 21%
18:00 +24°C° 0 mm 2 mps 753 mmHg 25%
19:00 +21°C° 0 mm 2 mps 753 mmHg 29%
20:00 +19°C° 0 mm 2 mps 753 mmHg 34%
21:00 +18°C° 0 mm 2 mps 753 mmHg 40%
22:00 +17°C° 0 mm 2 mps 753 mmHg 46%
23:00 +18°C° 0 mm 1 mps 753 mmHg 52%

24 September, Thursday

Time Temperature Precipitation Wind Pressure Humidity
00:00 +16°C° 0 mm 1 mps 753 mmHg 56%
01:00 +16°C° 0 mm 1 mps 753 mmHg 60%
02:00 +15°C° 0 mm 1 mps 753 mmHg 63%
03:00 +15°C° 0 mm 1 mps 753 mmHg 64%
04:00 +15°C° 0 mm 1 mps 753 mmHg 64%
05:00 +14°C° 0 mm 2 mps 753 mmHg 64%
06:00 +16°C° 0 mm 2 mps 753 mmHg 57%
07:00 +18°C° 0 mm 3 mps 753 mmHg 50%
08:00 +20°C° 0 mm 3 mps 753 mmHg 43%
09:00 +22°C° 0 mm 3 mps 753 mmHg 37%
10:00 +25°C° 0 mm 3 mps 753 mmHg 32%
11:00 +27°C° 0 mm 3 mps 753 mmHg 26%
12:00 +28°C° 0 mm 3 mps 752 mmHg 26%
13:00 +29°C° 0 mm 3 mps 752 mmHg 25%
14:00 +30°C° 0 mm 3 mps 752 mmHg 24%
15:00 +29°C° 0 mm 3 mps 752 mmHg 27%
16:00 +28°C° 0 mm 2 mps 752 mmHg 29%
17:00 +28°C° 0 mm 1 mps 751 mmHg 31%
18:00 +26°C° 0 mm 2 mps 752 mmHg 35%
19:00 +24°C° 0 mm 2 mps 752 mmHg 38%
20:00 +21°C° 0 mm 2 mps 752 mmHg 42%
21:00 +20°C° 0 mm 2 mps 752 mmHg 46%
22:00 +19°C° 0 mm 2 mps 752 mmHg 51%
23:00 +19°C° 0 mm 2 mps 752 mmHg 55%

25 September, Friday

Time Temperature Precipitation Wind Pressure Humidity
00:00 +18°C° 0 mm 2 mps 752 mmHg 55%
01:00 +19°C° 0 mm 1 mps 752 mmHg 56%
02:00 +18°C° 0 mm 1 mps 752 mmHg 57%
03:00 +18°C° 0 mm 1 mps 752 mmHg 60%
04:00 +16°C° 0 mm 2 mps 752 mmHg 64%
05:00 +16°C° 0 mm 2 mps 752 mmHg 68%
06:00 +17°C° 0 mm 2 mps 752 mmHg 61%
07:00 +19°C° 0 mm 3 mps 752 mmHg 55%
08:00 +20°C° 0 mm 3 mps 752 mmHg 48%
09:00 +22°C° 0 mm 3 mps 752 mmHg 43%
10:00 +25°C° 0 mm 3 mps 752 mmHg 38%
11:00 +27°C° 0 mm 4 mps 752 mmHg 32%
12:00 +28°C° 0 mm 4 mps 751 mmHg 31%
13:00 +29°C° 0 mm 3 mps 751 mmHg 31%
14:00 +30°C° 0 mm 3 mps 751 mmHg 30%
15:00 +29°C° 0 mm 3 mps 750 mmHg 31%
16:00 +29°C° 0 mm 3 mps 750 mmHg 33%
17:00 +28°C° 0 mm 2 mps 750 mmHg 34%
18:00 +26°C° 0 mm 2 mps 750 mmHg 39%
19:00 +24°C° 0 mm 2 mps 750 mmHg 43%
20:00 +23°C° 0 mm 2 mps 750 mmHg 48%
21:00 +21°C° 0 mm 2 mps 750 mmHg 51%
22:00 +20°C° 0 mm 2 mps 750 mmHg 55%
23:00 +19°C° 0 mm 2 mps 750 mmHg 59%

26 September, Saturday

Time Temperature Precipitation Wind Pressure Humidity
00:00 +20°C° 0 mm 1 mps 750 mmHg 62%
01:00 +19°C° 0 mm 1 mps 749 mmHg 66%
02:00 +19°C° 0 mm 1 mps 749 mmHg 70%
03:00 +18°C° 0 mm 1 mps 749 mmHg 72%
04:00 +17°C° 0 mm 2 mps 749 mmHg 73%
05:00 +17°C° 0 mm 2 mps 749 mmHg 75%
06:00 +18°C° 0 mm 3 mps 749 mmHg 70%
07:00 +20°C° 0 mm 3 mps 749 mmHg 64%
08:00 +21°C° 0 mm 4 mps 749 mmHg 59%
09:00 +23°C° 0 mm 4 mps 749 mmHg 53%
10:00 +26°C° 0 mm 5 mps 749 mmHg 46%
11:00 +29°C° 0 mm 5 mps 749 mmHg 40%
12:00 +29°C° 0 mm 5 mps 749 mmHg 37%
13:00 +30°C° 0 mm 6 mps 749 mmHg 35%
14:00 +32°C° 0 mm 6 mps 748 mmHg 33%
15:00 +30°C° 0 mm 5 mps 748 mmHg 34%
16:00 +29°C° 0 mm 5 mps 748 mmHg 35%
17:00 +28°C° 0 mm 4 mps 748 mmHg 36%
18:00 +26°C° 0 mm 4 mps 748 mmHg 44%
19:00 +22°C° 0 mm 3 mps 749 mmHg 51%
20:00 +20°C° 0 mm 2 mps 749 mmHg 58%
21:00 +20°C° 0 mm 3 mps 749 mmHg 62%
22:00 +19°C° 0 mm 3 mps 749 mmHg 65%
23:00 +19°C° 0 mm 3 mps 749 mmHg 69%
Show more